Hourly Weather Barra Bonita

Today, 18 April, Sunday

Time Temperature Precipitation Wind Pressure Humidity
00:00 +18°C° 1 mm 0 mps 721 mmHg 97%
01:00 +18°C° 1 mm 0 mps 721 mmHg 98%
02:00 +18°C° 1 mm 0 mps 720 mmHg 98%
03:00 +18°C° 1 mm 0 mps 720 mmHg 98%
04:00 +18°C° 0.1 mm 0 mps 720 mmHg 98%
05:00 +18°C° 0.1 mm 0 mps 720 mmHg 98%
06:00 +18°C° 0.1 mm 0 mps 720 mmHg 98%
07:00 +19°C° 0 mm 0 mps 721 mmHg 94%
08:00 +20°C° 0 mm 0 mps 721 mmHg 90%
09:00 +21°C° 0 mm 0 mps 722 mmHg 86%
10:00 +25°C° 0 mm 1 mps 722 mmHg 77%
11:00 +27°C° 0 mm 1 mps 721 mmHg 69%
12:00 +28°C° 0 mm 1 mps 721 mmHg 60%
13:00 +28°C° 0.6 mm 2 mps 721 mmHg 61%
14:00 +28°C° 0.6 mm 2 mps 720 mmHg 62%
15:00 +28°C° 0.6 mm 2 mps 719 mmHg 63%
16:00 +26°C° 0.4 mm 2 mps 719 mmHg 70%
17:00 +25°C° 0.4 mm 2 mps 720 mmHg 77%
18:00 +23°C° 0.4 mm 2 mps 720 mmHg 84%
19:00 +21°C° 0.1 mm 3 mps 720 mmHg 87%
20:00 +20°C° 0.1 mm 3 mps 721 mmHg 90%
21:00 +19°C° 0.1 mm 4 mps 721 mmHg 93%
22:00 +19°C° 0 mm 4 mps 721 mmHg 93%
23:00 +19°C° 0 mm 4 mps 721 mmHg 93%

Tomorrow, 19 April, Monday

Time Temperature Precipitation Wind Pressure Humidity
00:00 +18°C° 0 mm 4 mps 721 mmHg 93%
01:00 +18°C° 0 mm 3 mps 721 mmHg 94%
02:00 +18°C° 0 mm 3 mps 721 mmHg 95%
03:00 +17°C° 0 mm 3 mps 721 mmHg 95%
04:00 +17°C° 0 mm 3 mps 721 mmHg 95%
05:00 +17°C° 0 mm 3 mps 721 mmHg 94%
06:00 +17°C° 0 mm 3 mps 721 mmHg 94%
07:00 +19°C° 0 mm 4 mps 722 mmHg 86%
08:00 +21°C° 0 mm 4 mps 722 mmHg 79%
09:00 +22°C° 0 mm 5 mps 723 mmHg 71%
10:00 +25°C° 0 mm 4 mps 723 mmHg 64%
11:00 +26°C° 0 mm 4 mps 723 mmHg 57%
12:00 +28°C° 0 mm 4 mps 723 mmHg 51%
13:00 +27°C° 0 mm 4 mps 722 mmHg 52%
14:00 +27°C° 0 mm 4 mps 722 mmHg 52%
15:00 +27°C° 0 mm 4 mps 721 mmHg 53%
16:00 +26°C° 0 mm 4 mps 721 mmHg 57%
17:00 +25°C° 0 mm 3 mps 721 mmHg 61%
18:00 +24°C° 0 mm 3 mps 721 mmHg 65%
19:00 +22°C° 0 mm 3 mps 722 mmHg 69%
20:00 +21°C° 0 mm 3 mps 722 mmHg 72%
21:00 +20°C° 0 mm 3 mps 722 mmHg 76%
22:00 +19°C° 0 mm 3 mps 722 mmHg 81%
23:00 +18°C° 0 mm 3 mps 723 mmHg 85%

Day after tomorrow, 20 April, Tuesday

Time Temperature Precipitation Wind Pressure Humidity
00:00 +17°C° 0 mm 3 mps 723 mmHg 90%
01:00 +17°C° 0 mm 3 mps 722 mmHg 92%
02:00 +17°C° 0 mm 3 mps 722 mmHg 94%
03:00 +16°C° 0 mm 2 mps 722 mmHg 96%
04:00 +16°C° 0 mm 2 mps 722 mmHg 95%
05:00 +16°C° 0 mm 2 mps 722 mmHg 93%
06:00 +16°C° 0 mm 2 mps 722 mmHg 92%
07:00 +18°C° 0 mm 3 mps 722 mmHg 83%
08:00 +20°C° 0 mm 4 mps 723 mmHg 75%
09:00 +22°C° 0 mm 5 mps 723 mmHg 67%
10:00 +23°C° 0 mm 4 mps 723 mmHg 60%
11:00 +26°C° 0 mm 4 mps 723 mmHg 54%
12:00 +28°C° 0 mm 4 mps 723 mmHg 47%
13:00 +28°C° 0 mm 4 mps 723 mmHg 46%
14:00 +28°C° 0 mm 5 mps 722 mmHg 45%
15:00 +29°C° 0 mm 5 mps 721 mmHg 43%
16:00 +27°C° 0 mm 5 mps 722 mmHg 50%
17:00 +25°C° 0 mm 5 mps 722 mmHg 57%
18:00 +22°C° 0 mm 4 mps 722 mmHg 64%
19:00 +21°C° 0 mm 4 mps 722 mmHg 69%
20:00 +20°C° 0 mm 4 mps 723 mmHg 73%
21:00 +19°C° 0 mm 4 mps 723 mmHg 77%
22:00 +18°C° 0 mm 4 mps 723 mmHg 82%
23:00 +17°C° 0 mm 3 mps 723 mmHg 88%

21 April, Wednesday

Time Temperature Precipitation Wind Pressure Humidity
00:00 +16°C° 0 mm 3 mps 723 mmHg 93%
01:00 +16°C° 0 mm 3 mps 723 mmHg 94%
02:00 +16°C° 0 mm 2 mps 723 mmHg 96%
03:00 +15°C° 0 mm 2 mps 722 mmHg 97%
04:00 +15°C° 0 mm 2 mps 722 mmHg 97%
05:00 +15°C° 0 mm 2 mps 722 mmHg 97%
06:00 +15°C° 0 mm 2 mps 722 mmHg 96%
07:00 +17°C° 0 mm 3 mps 723 mmHg 86%
08:00 +19°C° 0 mm 4 mps 723 mmHg 75%
09:00 +21°C° 0 mm 5 mps 724 mmHg 65%
10:00 +23°C° 0 mm 5 mps 723 mmHg 59%
11:00 +25°C° 0 mm 4 mps 723 mmHg 54%
12:00 +27°C° 0 mm 4 mps 723 mmHg 48%
13:00 +27°C° 0 mm 4 mps 722 mmHg 48%
14:00 +27°C° 0 mm 4 mps 722 mmHg 47%
15:00 +28°C° 0 mm 4 mps 721 mmHg 46%
16:00 +26°C° 0 mm 3 mps 721 mmHg 53%
17:00 +24°C° 0 mm 3 mps 721 mmHg 60%
18:00 +21°C° 0 mm 2 mps 721 mmHg 67%
19:00 +20°C° 0 mm 2 mps 722 mmHg 72%
20:00 +19°C° 0 mm 3 mps 722 mmHg 77%
21:00 +18°C° 0 mm 3 mps 722 mmHg 82%
22:00 +18°C° 0 mm 3 mps 722 mmHg 86%
23:00 +17°C° 0 mm 3 mps 722 mmHg 89%

22 April, Thursday

Time Temperature Precipitation Wind Pressure Humidity
00:00 +16°C° 0 mm 3 mps 722 mmHg 93%
01:00 +16°C° 0 mm 3 mps 722 mmHg 94%
02:00 +16°C° 0 mm 2 mps 721 mmHg 95%
03:00 +15°C° 0 mm 2 mps 721 mmHg 97%
04:00 +15°C° 0 mm 2 mps 721 mmHg 97%
05:00 +15°C° 0 mm 2 mps 721 mmHg 97%
06:00 +14°C° 0 mm 2 mps 722 mmHg 97%
07:00 +17°C° 0 mm 2 mps 722 mmHg 88%
08:00 +19°C° 0 mm 3 mps 723 mmHg 78%
09:00 +21°C° 0 mm 3 mps 723 mmHg 69%
10:00 +24°C° 0 mm 2 mps 723 mmHg 60%
11:00 +26°C° 0 mm 2 mps 723 mmHg 51%
12:00 +28°C° 0 mm 1 mps 723 mmHg 42%
13:00 +29°C° 0 mm 1 mps 722 mmHg 39%
14:00 +29°C° 0 mm 1 mps 722 mmHg 37%
15:00 +30°C° 0 mm 1 mps 721 mmHg 34%
16:00 +28°C° 0 mm 1 mps 721 mmHg 42%
17:00 +25°C° 0 mm 1 mps 721 mmHg 49%
18:00 +23°C° 0 mm 1 mps 720 mmHg 57%
19:00 +22°C° 0 mm 1 mps 721 mmHg 61%
20:00 +21°C° 0 mm 1 mps 721 mmHg 65%
21:00 +20°C° 0 mm 1 mps 721 mmHg 69%
22:00 +19°C° 0 mm 1 mps 721 mmHg 74%
23:00 +18°C° 0 mm 2 mps 721 mmHg 79%

23 April, Friday

Time Temperature Precipitation Wind Pressure Humidity
00:00 +17°C° 0 mm 2 mps 721 mmHg 84%
01:00 +17°C° 0 mm 2 mps 721 mmHg 87%
02:00 +16°C° 0 mm 1 mps 721 mmHg 89%
03:00 +16°C° 0 mm 1 mps 721 mmHg 91%
04:00 +16°C° 0 mm 1 mps 721 mmHg 92%
05:00 +16°C° 0 mm 1 mps 721 mmHg 93%
06:00 +15°C° 0 mm 1 mps 722 mmHg 93%
07:00 +18°C° 0 mm 2 mps 722 mmHg 83%
08:00 +20°C° 0 mm 2 mps 722 mmHg 73%
09:00 +24°C° 0 mm 3 mps 723 mmHg 63%
10:00 +26°C° 0 mm 2 mps 723 mmHg 52%
11:00 +28°C° 0 mm 2 mps 722 mmHg 42%
12:00 +31°C° 0 mm 2 mps 722 mmHg 31%
13:00 +31°C° 0 mm 1 mps 721 mmHg 30%
14:00 +32°C° 0 mm 1 mps 721 mmHg 28%
15:00 +32°C° 0 mm 1 mps 720 mmHg 27%
16:00 +30°C° 0 mm 1 mps 720 mmHg 33%
17:00 +28°C° 0 mm 1 mps 720 mmHg 40%
18:00 +26°C° 0 mm 1 mps 720 mmHg 46%
19:00 +24°C° 0 mm 1 mps 720 mmHg 50%
20:00 +23°C° 0 mm 1 mps 720 mmHg 53%
21:00 +22°C° 0 mm 1 mps 720 mmHg 56%
22:00 +22°C° 0 mm 1 mps 720 mmHg 57%
23:00 +21°C° 0 mm 1 mps 720 mmHg 57%
Show more